Location: Bayshore Village Mobile Home Park
(26.6945°N, 81.8642°W)
Time: 00:03:35
(UTC+00:00)

CZ-2C R/B - Pass Details

Date: 17 June 2021
Orbit: 389 x 579 km, 35.0° (Epoch: 05 August)

Event Time Altitude Azimuth Distance (km) Brightness Sun altitude
Exits shadow 09:51:31 13° 237° (WSW) 1,318 2.6 -9.1°
Maximum altitude 09:54:27 72° 155° (SSE) 424 0.7 -8.5°
Drops below altitude 10° 09:57:39 10° 69° (ENE) 1,424 5.1 -7.9°
Sets 09:59:43 0° 67° (ENE) 2,270 6.7 -7.5°
